This demonstration page uses our WeatherBlox Daily Observations layout. Learn more.

Left ArrowRight Arrow

41.86663, -103.66717

Hourly Observations for March 18, 2018

Temp ( °F °C ) Dew Point ( °F °C ) Humidity (%) Winds ( mph kmh ) Pressure ( in mb ) Visibility ( mi km ) Precip ( " mm )
12:53 am 00:53 Mostly Clear 37 2.8 32 undefined 82 82 ESE 13 20 29.83 1010 10 16 N/A
1:53 am 01:53 Partly Cloudy 37 2.8 32 undefined 82 82 ESE 9 15 29.81 1010 10 16 N/A
2:53 am 02:53 Mostly Cloudy 36 2.2 31 -0.6 82 82 E 9 15 29.79 1009 10 16 N/A
3:53 am 03:53 Mostly Cloudy 35 1.7 31 -0.6 85 85 ESE 10 17 29.75 1008 10 16 N/A
4:53 am 04:53 Clear 34 1.1 30 -1.1 85 85 E 12 19 29.74 1007 10 16 N/A
5:53 am 05:53 Clear 32 undefined 29 -1.7 88 88 E 12 19 29.77 1008 10 16 N/A
6:53 am 06:53 Clear 32 undefined 28 -2.2 85 85 SE 10 17 29.79 1009 10 16 N/A
7:53 am 07:53 Sunny 32 undefined 29 -1.7 88 88 ESE 9 15 29.78 1009 10 16 N/A
8:53 am 08:53 Mostly Sunny 34 1.1 28 -2.2 79 79 SE 6 9 29.79 1009 10 16 N/A
9:53 am 09:53 Sunny 35 1.7 29 -1.7 78 78 N N/A 29.78 1008 10 16 N/A
10:53 am 10:53 Sunny 38 3.3 30 -1.1 73 73 VRB 3 6 29.77 1008 10 16 N/A
11:53 am 11:53 Sunny 42 5.6 32 undefined 68 68 VRB 3 6 29.73 1007 10 16 N/A
12:53 pm 12:53 Sunny 45 7.2 32 undefined 61 61 E 5 7 29.72 1006 10 16 N/A
1:53 pm 13:53 Sunny 48 8.9 32 undefined 54 54 VRB 3 6 29.68 1005 10 16 N/A
2:53 pm 14:53 Mostly Sunny 51 10.6 33 0.6 50 50 VRB 6 9 29.67 1005 10 16 N/A
3:53 pm 15:53 Cloudy 50 10 33 0.6 52 52 NE 8 13 29.67 1005 10 16 N/A
4:53 pm 16:53 Partly Cloudy 51 10.6 35 1.7 54 54 NE 12 19 29.69 1005 10 16 N/A
5:53 pm 17:53 Cloudy 47 8.3 35 1.7 63 63 NNE 9 15 29.73 1007 10 16 N/A
6:53 pm 18:53 Cloudy 39 3.9 34 1.1 82 82 N 22 35 29.80 1009 10 16 N/A
7:09 pm 19:09 Cloudy 37 3 34 1 87 87 N 21 33 29.83 1010 10 16 N/A
7:53 pm 19:53 Cloudy 35 1.7 32 undefined 89 89 N 20 31 29.83 1010 10 16 N/A
8:12 pm 20:12 Cloudy 34 1 30 -1 87 87 N 22 35 29.88 1012 10 16 N/A
8:23 pm 20:23 Cloudy 34 1.1 31 -0.6 89 89 N 24 39 29.88 1012 10 16 N/A
8:53 pm 20:53 Cloudy 33 0.6 31 -0.6 92 92 N 15 24 29.86 1011 10 16 N/A
9:06 pm 21:06 Cloudy 34 1.1 31 -0.6 89 89 N 14 22 29.91 1013 10 16 N/A
9:42 pm 21:42 Cloudy 33 0.6 31 -0.6 92 92 N 13 20 29.91 1013 10 16 N/A
9:53 pm 21:53 Cloudy 34 1.1 31 -0.6 89 89 NW 12 19 29.88 1012 10 16 N/A
10:01 pm 22:01 Cloudy 34 1.1 30 -1.1 85 85 NW 13 20 29.94 1014 10 16 N/A
10:08 pm 22:08 Cloudy 34 1.1 30 -1.1 85 85 NW 12 19 29.94 1014 10 16 N/A
10:53 pm 22:53 Cloudy 34 1.1 30 -1.1 85 85 NNW 14 22 29.92 1013 10 16 N/A
11:51 pm 23:51 Cloudy with Light Snow 34 1 28 -2 81 81 NNW 18 30 30.03 1017 9 14 N/A
11:53 pm 23:53 Cloudy with Light Snow 34 1.1 29 -1.7 82 82 NNW 17 28 29.94 1014 9 14 N/A

Powered by AerisWeather